[[{"header":{"parameterUnit":"m.s-1","parameterCategory":1,"la1":30.2992,"la2":30.254,"lo1":-89.0895,"lo2":-89.0443,"dy":0.0025,"dx":0.0025,"nx":19,"ny":19,"refTime":"2026-03-24T21:00:00:Z","depth":0,"parameterNumber":2,"parameterNumberName":"U-component_of_WINDS"},"data":[0,0,0,-2.1599,-2.16,-2.1625,-2.1625,-2.1671,-2.1672,0,0,0,0,0,0,0,0,0,0,0,-2.1601,-2.1601,-2.1599,-2.16,-2.1625,-2.1625,-2.1671,-2.1672,0,0,0,0,0,0,0,0,0,0,0,-2.1601,-2.1601,-2.1602,-2.16,-2.1625,-2.1625,-2.1671,-2.1647,0,0,0,0,0,0,0,0,0,0,-2.1621,-2.1631,-2.1601,-2.1602,-2.1601,-2.1625,-2.1625,-2.1646,-2.1649,-2.1666,0,-2.1684,0,-2.1679,-2.1676,-2.1676,0,0,0,-2.1594,-2.1628,-2.1627,-2.1602,-2.1601,-2.1625,-2.1612,-2.1647,-2.165,-2.167,-2.1684,-2.1686,-2.1679,-2.1676,-2.1676,-2.1799,-2.18,0,0,-2.1592,-2.161,-2.1625,-2.1629,-2.1626,-2.1611,-2.1613,-2.1649,-2.1666,-2.1685,-2.1687,-2.168,-2.1676,-2.1677,-2.1798,-2.18,0,0,0,-2.1593,-2.161,-2.1607,-2.1628,-2.1631,-2.1612,-2.1614,-2.1664,-2.1662,-2.1687,-2.1681,-2.1677,-2.1678,-2.1797,-2.1799,-2.1861,0,0,0,-2.1592,-2.161,-2.1607,-2.1618,-2.1631,-2.1648,-2.1629,-2.1659,-2.1663,-2.168,-2.1677,-2.1678,-2.1796,-2.1798,-2.1857,-2.1888,0,0,0,-2.1596,-2.161,-2.1617,-2.1619,-2.163,-2.1647,-2.1646,-2.166,-2.1659,-2.1676,-2.1678,-2.1796,-2.1798,-2.1853,-2.1882,-2.1927,0,0,0,-2.1606,-2.1671,-2.1618,-2.1687,-2.163,-2.1684,-2.1646,-2.1686,-2.1707,-2.1677,-2.1797,-2.1799,-2.1852,-2.1878,-2.1923,-2.1969,-2.1989,0,0,-2.1697,-2.1682,-2.1721,-2.1675,-2.1744,-2.1679,-2.1757,-2.1759,-2.1745,-2.1782,-2.1785,-2.1858,-2.1881,-2.1926,-2.2092,-2.2108,0,0,0,-2.1756,-2.1785,-2.1799,-2.1821,-2.1824,-2.183,-2.1818,-2.1819,-2.185,-2.1767,-2.1884,-2.1898,-2.1923,-2.1944,-2.1958,-2.198,-2.1809,-2.1808,-2.1808,-2.1912,-2.189,-2.1953,-2.1934,-2.1955,-2.1942,-2.1957,-2.1957,-2.1927,-2.1955,-2.1967,-2.2071,-2.2096,-2.2106,-2.2129,-2.1987,-2.1988,-2.1988,-2.1988,-2.2046,-2.2084,-2.2042,-2.209,-2.2066,-2.2105,-2.2096,-2.2074,-2.2108,-2.206,-2.2081,-2.2033,-2.2125,-2.2143,-2.1992,-2.1992,-2.1991,-2.1991,-2.199,-2.2147,-2.2162,-2.2161,-2.2189,-2.2214,-2.2191,-2.2225,-2.2201,-2.2179,-2.2199,-2.221,-2.2209,-2.2207,-2.2206,-2.2206,-2.2206,-2.2207,-2.2207,-2.2207,-2.2254,-2.2251,-2.2284,-2.2292,-2.2303,-2.2313,-2.2301,-2.231,-2.2315,-2.2295,-2.2295,-2.2265,-2.2137,-2.2107,-2.2213,-2.2212,-2.2211,-2.221,-2.221,-2.2402,-2.2365,-2.2415,-2.2425,-2.2433,-2.246,-2.2427,-2.2449,-2.2454,-2.2472,-2.2435,-2.2344,-2.2328,-2.2316,-2.2292,-2.2439,-2.2439,-2.2439,-2.2439,-2.249,-2.2478,-2.2524,-2.2543,-2.2558,-2.2534,-2.2592,-2.2582,-2.2566,-2.2568,-2.2542,-2.2506,-2.2496,-2.2485,-2.2471,-2.2447,-2.2631,-2.2631,-2.2631,-2.2581,-2.2569,-2.2624,-2.2607,-2.2611,-2.2616,-2.267,-2.2693,-2.2667,-2.2638,-2.2569,-2.2561,-2.2502,-2.2484,-2.2457,-2.2434,-2.239,0,0]},{"header":{"parameterUnit":"m.s-1","parameterCategory":1,"la1":30.2992,"la2":30.254,"lo1":-89.0895,"lo2":-89.0443,"dy":0.0025,"dx":0.0025,"nx":19,"ny":19,"refTime":"2026-03-24T21:00:00:Z","depth":0,"parameterNumber":3,"parameterNumberName":"V-component_of_WINDS"},"data":[0,0,0,-2.903,-2.9032,-2.9078,-2.9078,-2.9139,-2.914,0,0,0,0,0,0,0,0,0,0,0,-2.9019,-2.902,-2.903,-2.9032,-2.9078,-2.9078,-2.9139,-2.914,0,0,0,0,0,0,0,0,0,0,0,-2.9019,-2.902,-2.902,-2.9032,-2.9078,-2.9078,-2.9139,-2.9103,0,0,0,0,0,0,0,0,0,0,-2.9057,-2.905,-2.902,-2.902,-2.9032,-2.9078,-2.9078,-2.9101,-2.9105,-2.912,0,-2.9135,0,-2.9139,-2.9144,-2.9145,0,0,0,-2.9029,-2.9047,-2.9057,-2.9021,-2.9033,-2.9078,-2.9056,-2.9103,-2.9108,-2.9125,-2.9135,-2.9138,-2.914,-2.9145,-2.9145,-2.9242,-2.9242,0,0,-2.9026,-2.9029,-2.9054,-2.906,-2.9055,-2.9055,-2.9058,-2.9106,-2.9117,-2.9136,-2.9139,-2.9141,-2.9145,-2.9146,-2.9241,-2.9242,0,0,0,-2.9021,-2.9027,-2.9036,-2.9058,-2.9066,-2.9056,-2.906,-2.9115,-2.9118,-2.914,-2.9141,-2.9146,-2.9146,-2.924,-2.9241,-2.9274,0,0,0,-2.9019,-2.9024,-2.9035,-2.9037,-2.9066,-2.9092,-2.9067,-2.9114,-2.912,-2.9141,-2.9146,-2.9147,-2.924,-2.9241,-2.9271,-2.9288,0,0,0,-2.9015,-2.9023,-2.9031,-2.9037,-2.9057,-2.9091,-2.9096,-2.9115,-2.9121,-2.9145,-2.9147,-2.9239,-2.9241,-2.9269,-2.9285,-2.9316,0,0,0,-2.9011,-2.9057,-2.9032,-2.9084,-2.9057,-2.9111,-2.9096,-2.9135,-2.9159,-2.9146,-2.924,-2.9241,-2.9269,-2.9283,-2.9313,-2.9343,-2.9355,0,0,-2.9071,-2.9065,-2.9095,-2.9073,-2.9133,-2.9103,-2.9167,-2.9185,-2.9184,-2.9222,-2.9224,-2.9272,-2.9285,-2.9315,-2.942,-2.943,0,0,0,-2.9114,-2.9137,-2.9152,-2.9176,-2.9193,-2.9209,-2.9218,-2.9225,-2.9257,-2.9205,-2.9291,-2.9298,-2.9316,-2.933,-2.9338,-2.9353,-2.9247,-2.9247,-2.9247,-2.9201,-2.92,-2.925,-2.9254,-2.9278,-2.9287,-2.9306,-2.9317,-2.9306,-2.9326,-2.9338,-2.9402,-2.9419,-2.9425,-2.9441,-2.9352,-2.9352,-2.9352,-2.9352,-2.9289,-2.932,-2.9307,-2.9352,-2.9349,-2.9385,-2.9396,-2.9387,-2.942,-2.9393,-2.9408,-2.938,-2.9436,-2.945,-2.9355,-2.9354,-2.9354,-2.9354,-2.9354,-2.9347,-2.9361,-2.9371,-2.9407,-2.9434,-2.9435,-2.9469,-2.9464,-2.9459,-2.9474,-2.9487,-2.9486,-2.9486,-2.9481,-2.9481,-2.9481,-2.9481,-2.9481,-2.9481,-2.9403,-2.9413,-2.9442,-2.9465,-2.9481,-2.9501,-2.9511,-2.9526,-2.9541,-2.9534,-2.9534,-2.9522,-2.9441,-2.9422,-2.9485,-2.9484,-2.9484,-2.9484,-2.9483,-2.9494,-2.9473,-2.9519,-2.9535,-2.9562,-2.959,-2.9584,-2.9615,-2.9626,-2.9642,-2.9627,-2.9567,-2.956,-2.9554,-2.9537,-2.9627,-2.9627,-2.9627,-2.9627,-2.9544,-2.954,-2.9587,-2.9613,-2.9638,-2.9637,-2.9688,-2.9697,-2.9702,-2.9708,-2.9694,-2.9672,-2.9666,-2.9662,-2.9653,-2.9638,-2.9751,-2.9751,-2.9751,-2.96,-2.9599,-2.9644,-2.9652,-2.9672,-2.969,-2.9738,-2.9767,-2.9768,-2.9756,-2.9714,-2.9708,-2.9672,-2.9661,-2.9649,-2.9635,-2.9607,0,0]}]]